Regional Weather Roundup
Issued by NWS Columbia, SC

Home | Current Version | Previous Version | Text Only | Print | Product List | Glossary On
Versions: 1 2 3 4 5 6 7 8 9 10 11 12 13 14 15 16 17 18 19 20 21 22 23 24 25 26 27
000
ASUS42 KCAE 211410
RWRCAE
REGIONAL WEATHER ROUNDUP
NATIONAL WEATHER SERVICE COLUMBIA SC
1000 AM EDT SAT OCT 21 2017

NOTE: "FAIR" INDICATES FEW OR NO CLOUDS BELOW 12,000 FEET WITH NO
SIGNIFICANT WEATHER AND/OR OBSTRUCTIONS TO VISIBILITY.

NOT ALL STATIONS ARE QUALITY CONTROLLED BY THE NATIONAL
WEATHER SERVICE. USE DATA WITH CAUTION...ESPECIALLY
DEWPOINT OBSERVATIONS.

SCZ001>056-GAZ040-063>065-077-211500-
...UPSTATE SOUTH CAROLINA...

CITY           SKY/WX    TMP DP  RH WIND       PRES   REMARKS
ANDERSON       CLOUDY    63  52  67 NE6       30.33R
LIBERTY        CLOUDY    56  53  90 CALM      30.33R
SPARTANBURG    CLOUDY    59  50  72 NE3       30.34R
CLEMSON        CLOUDY    61  57  87 CALM      30.35R
GREENVILLE     CLOUDY    66  48  52 NE8       30.35R
GREENWOOD      MOSUNNY   58  52  80 NE3       30.35R
GREER          CLOUDY    61  51  70 NE5       30.35R
ROCK HILL      CLOUDY    61  56  83 NE3       30.34R
CHESTER        CLOUDY    59  50  72 NE3       30.35R
LAURENS        SUNNY     61  52  72 NE3       30.33S


...CENTRAL SOUTH CAROLINA...

CITY           SKY/WX    TMP DP  RH WIND       PRES   REMARKS
COLUMBIA APT   PTSUNNY   61  55  81 CALM      30.32R
COLUMBIA OWENS SUNNY     63  54  72 CALM      30.33S
MCENTIRE ANGB  PTSUNNY   64  56  76 CALM      30.32S
ORANGEBURG     SUNNY     67  58  72 CALM      30.32R
SUMTER SHAW    CLOUDY    65  58  77 CALM      30.30R
NEWBERRY       SUNNY     61  52  72 CALM      30.36S
AIKEN          FAIR      64  59  82 CALM      30.35
BARNWELL         N/A     66  59  77 CALM      30.32R
MANNING        HAZE      64  52  63 MISG      30.32S VSB<1/4
CAMDEN         FAIR      63  52  67 CALM      30.34R
LANCASTER      CLOUDY    59  55  88 CALM      30.34S
WINNSBORO      SUNNY     64  52  63 CALM      30.33R


...EASTERN AND COASTAL SOUTH CAROLINA...

CITY           SKY/WX    TMP DP  RH WIND       PRES   REMARKS
MYRTLE BEACH   SUNNY     69  58  67 N8        30.33R
N MYRTLE BCH   SUNNY     69  58  67 N7        30.32R
CONWAY         FAIR      64  59  82 N3        30.33R HAZE
MARION         FAIR      66  59  77 CALM      30.33R
HARTSVILLE     FAIR      64  52  63 E3        30.33R
FLORENCE       SUNNY     66  56  70 CALM      30.33R
DARLINGTON     SUNNY     62  55  77 MISG      30.34R
CHARLESTON APT MOSUNNY   69  60  73 NE7       30.30R
MOUNT PLEASANT FAIR      70  61  73 N3        30.31R
WALTERBORO     SUNNY     66  61  82 CALM      30.31S
BEAUFORT       SUNNY     71  62  73 MISG      30.29R


...EASTERN GEORGIA...

CITY           SKY/WX    TMP DP  RH WIND       PRES   REMARKS
AUGUSTA BUSH F MOSUNNY   63  57  81 CALM      30.31R
AUGUSTA DANIEL SUNNY     66  58  75 CALM      30.32R
THOMSON        CLOUDY    60  53  75 CALM      30.37S
CLAXTON        FAIR      68  63  84 N5        30.28S
SYLVANIA       SUNNY     66  61  84 E3        30.31R
STATESBORO     CLOUDY    66  58  74 CALM      30.30R
SAVANNAH       MOSUNNY   72  64  76 NE8       30.28R


...SOUTHERN NORTH CAROLINA...

CITY           SKY/WX    TMP DP  RH WIND       PRES   REMARKS
CHARLOTTE      PTSUNNY   64  54  69 NE5       30.34R
MONROE         SUNNY     62  53  72 NE3       30.33R
WADESBORO      SUNNY     57  51  79 CALM      30.34R
RUTHERFORDTON  CLOUDY    60  52  76 CALM      30.36R
ASHEVILLE      CLOUDY    51  47  86 CALM      30.39R

$$




USA.gov is the U.S. government's official web portal to all federal, state and local government web resources and services.